When you browse on this site, cookies collect data to enhance your experience and personalize the content and advertising you see.
Visit our Privacy Policy to learn more. By continuing to use the site, you agree to this use of cookies and data.
EN

Hourly Weather Bugojno

Today, 10 July, Friday

Time Temperature Precipitation Wind Pressure Humidity
00:00 +19°C° 0 mm 1 mps 712 mmHg 76%
01:00 +19°C° 0 mm 1 mps 712 mmHg 76%
02:00 +18°C° 0 mm 1 mps 712 mmHg 75%
03:00 +18°C° 0 mm 1 mps 712 mmHg 74%
04:00 +18°C° 0 mm 1 mps 711 mmHg 73%
05:00 +18°C° 0 mm 0 mps 712 mmHg 70%
06:00 +20°C° 0 mm 0 mps 712 mmHg 68%
07:00 +22°C° 0 mm 0 mps 712 mmHg 65%
08:00 +24°C° 0 mm 0 mps 713 mmHg 58%
09:00 +27°C° 0 mm 0 mps 713 mmHg 51%
10:00 +29°C° 0 mm 0 mps 713 mmHg 44%
11:00 +29°C° 0 mm 0 mps 713 mmHg 42%
12:00 +30°C° 0 mm 0 mps 713 mmHg 39%
13:00 +32°C° 0 mm 1 mps 713 mmHg 37%
14:00 +32°C° 0 mm 1 mps 712 mmHg 41%
15:00 +32°C° 0 mm 1 mps 712 mmHg 44%
16:00 +31°C° 0 mm 1 mps 712 mmHg 47%
17:00 +29°C° 0 mm 1 mps 711 mmHg 57%
18:00 +27°C° 0 mm 1 mps 711 mmHg 66%
19:00 +24°C° 0 mm 1 mps 710 mmHg 75%
20:00 +23°C° 0 mm 1 mps 710 mmHg 76%
21:00 +22°C° 0 mm 1 mps 711 mmHg 77%
22:00 +21°C° 0 mm 1 mps 711 mmHg 79%
23:00 +21°C° 0 mm 1 mps 710 mmHg 78%

Tomorrow, 11 July, Saturday

Time Temperature Precipitation Wind Pressure Humidity
00:00 +20°C° 0 mm 1 mps 710 mmHg 77%
01:00 +20°C° 0 mm 1 mps 710 mmHg 76%
02:00 +20°C° 0 mm 1 mps 710 mmHg 74%
03:00 +19°C° 0 mm 1 mps 710 mmHg 73%
04:00 +19°C° 0 mm 1 mps 710 mmHg 71%
05:00 +21°C° 0 mm 1 mps 710 mmHg 68%
06:00 +21°C° 0 mm 0 mps 711 mmHg 65%
07:00 +23°C° 0 mm 0 mps 711 mmHg 62%
08:00 +25°C° 0 mm 0 mps 711 mmHg 56%
09:00 +26°C° 0 mm 0 mps 711 mmHg 50%
10:00 +30°C° 0 mm 1 mps 712 mmHg 44%
11:00 +31°C° 0 mm 1 mps 712 mmHg 43%
12:00 +31°C° 0 mm 1 mps 711 mmHg 42%
13:00 +32°C° 0 mm 2 mps 711 mmHg 41%
14:00 +31°C° 0 mm 2 mps 711 mmHg 44%
15:00 +31°C° 0 mm 2 mps 711 mmHg 47%
16:00 +30°C° 0 mm 2 mps 711 mmHg 50%
17:00 +28°C° 0.2 mm 1 mps 711 mmHg 60%
18:00 +26°C° 0.2 mm 1 mps 711 mmHg 71%
19:00 +24°C° 0.2 mm 1 mps 711 mmHg 81%
20:00 +22°C° 0.5 mm 1 mps 711 mmHg 86%
21:00 +20°C° 0.5 mm 2 mps 712 mmHg 91%
22:00 +19°C° 0.5 mm 3 mps 712 mmHg 96%
23:00 +18°C° 0.2 mm 3 mps 712 mmHg 96%

Day after tomorrow, 12 July, Sunday

Time Temperature Precipitation Wind Pressure Humidity
00:00 +17°C° 0.2 mm 3 mps 712 mmHg 97%
01:00 +16°C° 0.2 mm 3 mps 712 mmHg 97%
02:00 +16°C° 0 mm 3 mps 712 mmHg 97%
03:00 +15°C° 0 mm 2 mps 712 mmHg 97%
04:00 +14°C° 0 mm 2 mps 712 mmHg 97%
05:00 +14°C° 0 mm 2 mps 713 mmHg 95%
06:00 +15°C° 0 mm 2 mps 713 mmHg 93%
07:00 +15°C° 0 mm 2 mps 713 mmHg 92%
08:00 +16°C° 0 mm 3 mps 714 mmHg 82%
09:00 +18°C° 0 mm 3 mps 714 mmHg 72%
10:00 +19°C° 0 mm 3 mps 714 mmHg 62%
11:00 +20°C° 0 mm 3 mps 714 mmHg 58%
12:00 +21°C° 0 mm 3 mps 714 mmHg 53%
13:00 +22°C° 0 mm 3 mps 714 mmHg 48%
14:00 +22°C° 0 mm 3 mps 714 mmHg 50%
15:00 +21°C° 0 mm 3 mps 714 mmHg 51%
16:00 +21°C° 0 mm 3 mps 714 mmHg 53%
17:00 +19°C° 0 mm 3 mps 714 mmHg 60%
18:00 +18°C° 0 mm 3 mps 714 mmHg 66%
19:00 +16°C° 0 mm 2 mps 714 mmHg 73%
20:00 +14°C° 0 mm 2 mps 714 mmHg 77%
21:00 +13°C° 0 mm 2 mps 714 mmHg 81%
22:00 +11°C° 0 mm 1 mps 714 mmHg 85%
23:00 +11°C° 0 mm 1 mps 714 mmHg 88%

13 July, Monday

Time Temperature Precipitation Wind Pressure Humidity
00:00 +11°C° 0 mm 1 mps 713 mmHg 90%
01:00 +10°C° 0 mm 1 mps 713 mmHg 93%
02:00 +10°C° 0 mm 1 mps 713 mmHg 94%
03:00 +10°C° 0 mm 1 mps 713 mmHg 95%
04:00 +10°C° 0 mm 1 mps 713 mmHg 95%
05:00 +12°C° 0 mm 2 mps 713 mmHg 89%
06:00 +13°C° 0 mm 2 mps 713 mmHg 82%
07:00 +15°C° 0 mm 2 mps 713 mmHg 75%
08:00 +17°C° 0 mm 3 mps 714 mmHg 68%
09:00 +18°C° 0 mm 3 mps 714 mmHg 60%
10:00 +20°C° 0 mm 3 mps 714 mmHg 52%
11:00 +21°C° 0 mm 3 mps 714 mmHg 51%
12:00 +21°C° 0 mm 3 mps 714 mmHg 50%
13:00 +22°C° 0 mm 3 mps 713 mmHg 49%
14:00 +22°C° 0 mm 3 mps 713 mmHg 52%
15:00 +22°C° 0 mm 3 mps 713 mmHg 55%
16:00 +21°C° 0 mm 3 mps 712 mmHg 59%
17:00 +20°C° 0 mm 3 mps 712 mmHg 67%
18:00 +18°C° 0 mm 2 mps 712 mmHg 74%
19:00 +17°C° 0 mm 2 mps 712 mmHg 82%
20:00 +15°C° 0 mm 1 mps 711 mmHg 86%
21:00 +14°C° 0 mm 1 mps 711 mmHg 90%
22:00 +13°C° 0 mm 1 mps 711 mmHg 94%
23:00 +13°C° 0 mm 1 mps 711 mmHg 94%

14 July, Tuesday

Time Temperature Precipitation Wind Pressure Humidity
00:00 +12°C° 0 mm 1 mps 711 mmHg 94%
01:00 +12°C° 0 mm 1 mps 711 mmHg 93%
02:00 +12°C° 0 mm 1 mps 711 mmHg 94%
03:00 +11°C° 0 mm 1 mps 711 mmHg 94%
04:00 +11°C° 0 mm 1 mps 711 mmHg 94%
05:00 +13°C° 0 mm 1 mps 711 mmHg 89%
06:00 +15°C° 0 mm 1 mps 711 mmHg 84%
07:00 +16°C° 0 mm 1 mps 712 mmHg 79%
08:00 +18°C° 0 mm 2 mps 712 mmHg 71%
09:00 +19°C° 0 mm 2 mps 712 mmHg 63%
10:00 +21°C° 0 mm 2 mps 712 mmHg 56%
11:00 +23°C° 0 mm 2 mps 712 mmHg 54%
12:00 +24°C° 0 mm 2 mps 712 mmHg 52%
13:00 +24°C° 0 mm 2 mps 712 mmHg 50%
14:00 +24°C° 0 mm 2 mps 712 mmHg 52%
15:00 +24°C° 0 mm 2 mps 712 mmHg 53%
16:00 +24°C° 0 mm 2 mps 711 mmHg 55%
17:00 +21°C° 0 mm 2 mps 711 mmHg 64%
18:00 +21°C° 0 mm 1 mps 711 mmHg 73%
19:00 +19°C° 0 mm 1 mps 711 mmHg 82%
20:00 +18°C° 0 mm 1 mps 711 mmHg 85%
21:00 +15°C° 0 mm 1 mps 711 mmHg 89%
22:00 +13°C° 0 mm 0 mps 711 mmHg 92%
23:00 +13°C° 0 mm 0 mps 711 mmHg 92%

15 July, Wednesday

Time Temperature Precipitation Wind Pressure Humidity
00:00 +12°C° 0 mm 0 mps 711 mmHg 92%
01:00 +12°C° 0 mm 0 mps 711 mmHg 92%
02:00 +12°C° 0 mm 0 mps 711 mmHg 92%
03:00 +12°C° 0 mm 0 mps 711 mmHg 92%
04:00 +12°C° 0 mm 0 mps 711 mmHg 91%
05:00 +14°C° 0 mm 0 mps 711 mmHg 87%
06:00 +16°C° 0 mm 0 mps 712 mmHg 82%
07:00 +18°C° 0 mm 0 mps 712 mmHg 77%
08:00 +20°C° 0 mm 0 mps 713 mmHg 69%
09:00 +22°C° 0 mm 0 mps 713 mmHg 60%
10:00 +26°C° 0 mm 1 mps 713 mmHg 52%
11:00 +27°C° 0 mm 1 mps 713 mmHg 50%
12:00 +27°C° 0 mm 1 mps 713 mmHg 48%
13:00 +28°C° 0 mm 1 mps 713 mmHg 45%
14:00 +27°C° 0 mm 1 mps 713 mmHg 50%
15:00 +27°C° 0 mm 1 mps 713 mmHg 55%
16:00 +26°C° 0 mm 1 mps 712 mmHg 60%
17:00 +24°C° 0.2 mm 1 mps 712 mmHg 69%
18:00 +22°C° 0.2 mm 1 mps 712 mmHg 77%
19:00 +21°C° 0.2 mm 1 mps 712 mmHg 85%
20:00 +18°C° 0.5 mm 0 mps 712 mmHg 87%
21:00 +17°C° 0.5 mm 0 mps 712 mmHg 89%
22:00 +16°C° 0.5 mm 0 mps 712 mmHg 91%
23:00 +15°C° 0.1 mm 0 mps 712 mmHg 91%
Show more